CST,Max TemperatureF,Mean TemperatureF,Min TemperatureF,Max Dew PointF,MeanDew PointF,Min DewpointF,Max Humidity, Mean Humidity, Min Humidity, Max Sea Level PressureIn, Mean Sea Level PressureIn, Min Sea Level PressureIn, Max VisibilityMiles, Mean VisibilityMiles, Min VisibilityMiles, Max Wind SpeedMPH, Mean Wind SpeedMPH, Max Gust SpeedMPH,PrecipitationIn, CloudCover, Events, WindDirDegrees
2014-2-1,78,72,66,67,65,63,93,79,64,29.85,29.80,29.73,10,8,4,29,18,36,T,6,Rain,161
2014-2-2,73,59,45,66,54,36,90,78,65,30.19,29.92,29.78,10,6,2,29,14,36,0.01,8,Rain,53
2014-2-3,46,43,40,43,37,33,89,77,65,30.23,30.10,29.95,10,6,2,21,11,24,0.02,8,Rain,21
2014-2-4,64,52,39,52,46,38,93,77,60,30.06,29.92,29.84,10,6,1,20,9,25,0.03,7,Fog-Rain,346
2014-2-5,62,50,38,45,37,28,93,66,39,30.34,30.22,30.06,10,7,0,26,14,35,0.00,5,Fog,41
2014-2-6,43,40,36,27,23,21,59,52,45,30.45,30.38,30.32,10,10,10,25,17,30,0.00,8,,11
2014-2-7,40,37,33,36,31,23,92,72,52,30.32,30.27,30.22,10,6,2,20,13,23,0.01,8,Rain,4
2014-2-8,52,46,40,47,41,37,93,85,77,30.27,30.21,30.13,10,4,0,12,4,13,T,7,Fog,19
2014-2-9,70,60,49,63,53,46,100,83,66,30.15,30.06,29.98,10,5,0,14,5,17,0.00,7,Fog,101
2014-2-10,71,58,44,67,56,41,93,90,86,30.09,30.01,29.94,7,2,0,25,14,30,0.02,8,Fog-Rain,55
2014-2-11,44,41,38,41,37,33,93,86,79,30.22,30.15,30.08,10,5,1,24,17,30,0.02,8,Rain,1
2014-2-12,59,48,37,34,33,31,85,61,37,30.23,30.16,30.09,10,10,9,22,12,26,0.00,4,,347
2014-2-13,71,51,31,48,39,26,86,61,36,30.14,30.04,29.95,10,10,10,20,7,25,0.00,1,,171
2014-2-14,91,67,42,56,49,42,100,61,21,30.05,29.93,29.82,10,9,1,25,9,30,0.00,0,Fog,159
2014-2-15,76,62,47,63,54,40,93,71,49,30.17,30.08,30.03,10,10,6,20,12,25,0.00,2,,110
2014-2-16,79,68,56,64,61,55,97,78,58,30.08,30.01,29.95,10,7,0,29,14,35,0.00,5,Fog,152
2014-2-17,86,76,66,66,65,62,90,73,55,30.09,30.01,29.96,10,9,6,30,13,33,0.00,6,,149
2014-2-18,81,73,65,67,65,62,93,76,58,30.07,30.01,29.92,10,6,0,29,14,35,0.00,5,Fog,159
2014-2-19,80,72,64,66,65,62,93,78,62,29.94,29.87,29.78,10,9,2,28,16,37,0.00,6,,164
2014-2-20,87,78,68,69,63,35,90,61,31,30.00,29.79,29.72,10,8,4,29,11,36,0.00,6,,133
2014-2-21,72,61,49,49,39,31,77,51,24,30.20,30.10,30.03,10,10,10,28,14,36,0.00,5,,77
2014-2-22,69,59,48,64,60,44,93,83,73,30.04,29.95,29.89,10,7,0,17,8,21,T,6,Fog-Rain,96
2014-2-23,81,74,66,70,66,64,93,76,58,29.98,29.93,29.88,10,4,0,10,4,15,T,7,Fog-Rain,140
2014-2-24,79,73,67,68,66,64,97,82,67,30.06,30.00,29.94,10,4,0,21,7,25,T,8,Fog-Rain,76
2014-2-25,77,71,64,70,67,63,93,88,82,30.01,29.94,29.87,10,5,0,16,8,20,0.02,8,Fog-Rain,108
2014-2-26,72,57,41,70,48,34,97,86,74,30.21,30.05,29.90,10,6,0,32,17,40,0.11,8,Fog-Rain,6
2014-2-27,59,49,38,40,34,29,83,61,39,30.22,30.10,29.98,10,10,10,15,8,20,0.00,3,,64
2014-2-28,88,66,43,63,55,41,93,66,39,29.96,29.88,29.81,10,10,9,23,12,32,0.00,3,,173